Back to catalog

STARLINK-31812

AliveCommunicationsVLEO
NORAD 59800·PAYLOAD·🇺🇸 United States

Launched May 18, 2024 from Cape Canaveral Space Force Station

Loading…

Next Passes (next 24 hours)

TLE

FreshSource: CelesTrak SupGP

Epoch: Sep 14, 2026, 21:27 UTC

1 59800C 24093U   26257.89423611  .00030937  00000+0  11205-2 0  2575
2 59800  42.9996 220.4568 0001405 259.9794 355.5938 15.27565368    12

Track STARLINK-31812 in real time with AllMySat

Download on the App Store